Location: Chevoux
(46.3801°N, 4.9476°E)
Time: 04:01:57
(UTC+00:00)

ISS - Pass Details

Date: 04 December 2021
Orbit: 413 x 422 km, 51.6° (Epoch: 22 January)

Event Time Altitude Azimuth Distance (km) Brightness Sun altitude
Rises 18:26:33 0° 293° (WNW) 2,383 1.0 -25.4°
Reaches altitude 10° 18:28:45 10° 285° (WNW) 1,512 -0.1 -25.8°
Enters shadow 18:30:53 29° 257° (WSW) 814 -1.7 -26.2°
